sat.trackr.live / text

‹ back to catalog

STARLINK-1647

NORAD 47978 · 2021-024B

PAYLOAD ACTIVE UNKNOWN

§ Identity

Operator
Country
US
Launch date
2021-03-24
Launch site
AFETR
Launch vehicle
Mass (kg)
RCS (m²)

Purposes: comms

External: N2YO · Heavens-Above · Gunter

§ Orbital elements

Epoch: 2026-09-20T00:37:21.588384Z

Period
94.01 min
Inclination
53.1583°
Eccentricity
0.0001072
Mean motion
15.31701157 rev/d
Perigee alt
470.0 km
Apogee alt
471.5 km
Semi-major
6,848.9 km
B*
1.0370e-5
RAAN
147.9797°
Arg perigee
105.1982°
Mean anomaly
254.9138°
Rev number
30,440

§ Raw data

STARLINK-16471 47978U 21024B   26263.02594431 -.00000043  00000+0  10370-4 0  99932 47978  53.1583 147.9797 0001072 105.1982 254.9138 15.31701157304406

JSON: /api/v1/satellites/47978 · /tle

For live sub-satellite position, see the globe view (requires WebGL).

§ Visibility from observer

Set your observer location to see the next 7 days of passes ≥ 10°. The values pass through the URL so the page stays shareable.

No JS? Fill the form by hand. The geolocation button needs JavaScript.